EW0349 Weather Reports


time (UTC)temp
F
wind
direction
speed
knots
gust
knots
rain 1hr
in
rain 24hr
in
rain mn
in
humidity
%
barometer
mb
20260831063032 59 18 0.0 0.9 0.00 0.00 0.00 61 1014.1
20260831061528 59 18 0.0 0.9 0.00 0.00 0.00 63 1014.3
20260831060024 60 18 0.0 1.7 0.00 0.00 0.00 64 1014.4
20260831054523 60 18 0.0 1.7 0.00 0.00 0.00 64 1014.4
20260831053015 61 18 0.0 2.6 0.00 0.00 0.00 64 1014.6
20260831051510 61 18 0.0 0.9 0.00 0.00 0.00 64 1014.7
20260831050005 62 18 0.0 2.6 0.00 0.00 0.00 63 1014.8
20260831044502 62 19 0.9 2.6 0.00 0.00 0.00 63 1014.9
20260831043057 63 21 0.0 3.5 0.00 0.00 0.00 62 1015.0
20260831041603 63 17 0.9 3.5 0.00 0.00 0.00 61 1014.9
20260831040049 64 14 0.9 3.5 0.00 0.00 0.00 60 1014.9
20260831034544 64 16 0.9 2.6 0.00 0.00 0.00 60 1014.8
20260831033039 65 19 0.9 3.5 0.00 0.00 0.00 59 1014.7
20260831031540 65 5 0.9 7.0 0.00 0.00 0.00 60 1014.8
20260831030030 66 17 0.9 4.3 0.00 0.00 0.00 59 1014.8
20260831024528 67 24 0.9 3.5 0.00 0.00 0.00 58 1014.8
20260831023021 68 24 0.9 4.3 0.00 0.00 0.00 56 1014.8
20260831021517 69 10 0.9 5.2 0.00 0.00 0.00 55 1014.9
20260831020012 70 22 1.7 4.3 0.00 0.00 0.00 53 1014.9
20260831014512 70 12 0.0 5.2 0.00 0.00 0.00 53 1014.9
20260831013004 71 97 0.9 5.2 0.00 0.00 0.00 51 1015.1
20260831011612 71 18 1.7 6.1 0.00 0.00 0.00 51 1015.2
20260831010055 71 16 2.6 6.1 0.00 0.00 0.00 50 1015.3
20260831004551 72 44 1.7 4.3 0.00 0.00 0.00 50 1015.5
20260831003046 72 22 0.9 5.2 0.00 0.00 0.00 49 1015.7
20260831001551 72 44 0.9 5.2 0.00 0.00 0.00 49 1015.8
20260831000037 72 15 3.5 6.1 0.00 0.00 0.00 48 1015.9
20260830234550 72 9 1.7 5.2 0.00 0.00 0.00 49 1016.1
20260830233032 73 9 2.6 6.1 0.00 0.00 0.00 46 1016.4
20260830231526 73 57 1.7 5.2 0.00 0.00 0.00 46 1016.5
20260830230031 73 18 1.7 5.2 0.00 0.00 0.00 47 1016.7
20260830224526 73 18 1.7 6.1 0.00 0.00 0.00 44 1016.9
20260830223018 72 127 1.7 8.7 0.00 0.00 0.00 45 1017.2
20260830221507 72 292 1.7 8.7 0.00 0.00 0.00 45 1017.4
20260830220005 72 82 0.9 5.2 0.00 0.00 0.00 46 1017.6
20260830214605 72 22 1.7 8.7 0.00 0.00 0.00 47 1017.9
20260830213100 72 38 1.7 5.2 0.00 0.00 0.00 45 1018.1
20260830211550 72 15 3.5 6.1 0.00 0.00 0.00 45 1018.3
20260830210045 71 19 0.9 6.1 0.00 0.00 0.00 47 1018.3
20260830204540 71 17 1.7 5.2 0.00 0.00 0.00 48 1018.5
20260830203036 70 106 0.9 7.0 0.00 0.00 0.00 50 1018.6
20260830201602 70 69 1.7 4.3 0.00 0.00 0.00 50 1018.9
20260830200027 69 156 0.9 5.2 0.00 0.00 0.00 52 1019.0
20260830194523 69 17 2.6 5.2 0.00 0.00 0.00 51 1019.2
20260830193019 68 32 0.0 3.5 0.00 0.00 0.00 52 1019.5
20260830191517 67 36 0.9 4.3 0.00 0.00 0.00 53 1019.7
20260830190013 66 19 2.6 7.0 0.00 0.00 0.00 53 1019.9
20260830184505 65 24 0.9 5.2 0.00 0.00 0.00 55 1019.9
20260830183000 65 73 0.9 7.0 0.00 0.00 0.00 55 1020.0
20260830181607 65 63 0.9 5.2 0.00 0.00 0.00 54 1020.3
20260830180059 64 5 0.0 5.2 0.00 0.00 0.00 56 1020.2
20260830174548 63 70 0.0 4.3 0.00 0.00 0.00 56 1020.1
20260830173043 62 14 1.7 6.1 0.00 0.00 0.00 55 1020.2
20260830171539 61 28 1.7 4.3 0.00 0.00 0.00 54 1020.1
20260830170034 60 26 0.9 6.1 0.00 0.00 0.00 51 1020.3
20260830164532 58 22 1.7 3.5 0.00 0.00 0.00 44 1020.3
20260830163033 57 19 0.0 2.6 0.00 0.00 0.00 35 1020.4
20260830161521 56 19 0.9 3.5 0.00 0.00 0.00 30 1020.5
20260830160017 55 45 0.0 2.6 0.00 0.00 0.00 19 1020.6
20260830154512 54 39 0.0 2.6 0.00 0.00 0.00 100 1020.6
20260830153026 52 92 0.0 4.3 0.00 0.00 0.00 100 1020.5
20260830151509 50 346 0.0 1.7 0.00 0.00 0.00 100 1020.7
20260830150105 49 345 0.0 0.9 0.00 0.00 0.00 100 1020.8
20260830144554 47 345 0.0 0.0 0.00 0.00 0.00 100 1020.8
20260830143057 46 345 0.0 0.9 0.00 0.00 0.00 100 1020.8
20260830141552 45 345 0.0 0.0 0.00 0.00 0.00 100 1020.8
20260830140042 44 345 0.0 0.0 0.00 0.01 0.00 100 1020.7
20260830134539 44 345 0.0 0.9 0.00 0.01 0.00 100 1020.7
20260830133041 44 345 0.0 0.9 0.00 0.01 0.00 100 1020.6
20260830131529 44 345 0.0 0.0 0.00 0.01 0.00 100 1020.6
20260830130023 44 345 0.0 0.0 0.00 0.01 0.00 100 1020.4
20260830124519 44 345 0.0 0.0 0.00 0.01 0.00 100 1020.3
20260830123015 45 345 0.0 0.9 0.00 0.01 0.00 100 1020.2
20260830121510 45 346 0.0 0.0 0.00 0.01 0.00 100 1020.3
20260830120006 45 346 0.0 0.9 0.00 0.01 0.00 100 1020.3
20260830114503 45 346 0.0 0.0 0.00 0.01 0.00 100 1020.2
20260830113057 46 346 0.0 0.0 0.00 0.01 0.00 100 1020.1
20260830111554 46 346 0.0 0.0 0.00 0.01 0.00 1 1020.2
20260830110051 46 346 0.0 0.0 0.00 0.01 0.00 5 1020.3
20260830104544 46 346 0.0 0.0 0.00 0.01 0.00 5 1020.3
20260830103040 47 346 0.0 0.0 0.00 0.01 0.00 7 1020.3
20260830101535 47 346 0.0 0.0 0.00 0.01 0.00 8 1020.3
20260830100035 48 346 0.0 0.0 0.00 0.01 0.00 10 1020.2
20260830094558 48 346 0.0 0.0 0.00 0.01 0.00 10 1020.2
20260830093024 48 346 0.0 0.0 0.00 0.01 0.00 13 1020.2
20260830091521 49 346 0.0 0.0 0.00 0.01 0.00 17 1020.3
20260830090038 49 346 0.0 0.0 0.00 0.01 0.00 18 1020.3
20260830084516 50 346 0.0 0.0 0.00 0.01 0.00 22 1020.2
20260830083014 50 346 0.0 0.0 0.00 0.01 0.00 22 1020.3
20260830081511 51 346 0.0 0.0 0.00 0.01 0.00 25 1020.2
20260830080020 51 346 0.0 0.0 0.00 0.01 0.00 30 1020.2
20260830074505 52 346 0.0 0.0 0.00 0.01 0.00 31 1020.2
20260830073003 52 346 0.0 0.0 0.00 0.01 0.00 37 1020.1
20260830071500 53 346 0.0 0.0 0.00 0.01 0.00 41 1020.0
20260830070057 54 346 0.0 0.0 0.00 0.01 0.01 44 1020.1
20260830064553 54 346 0.0 0.0 0.00 0.01 0.01 47 1020.0